Location: Palomar Mountain Lodge
(33.3110°N, 116.8495°W)
Time: 22:19:06
(UTC-07:00)

NOAA 11 - Pass Details

Date: 14 June 2018
Orbit: 834 x 849 km, 98.5° (Epoch: 21 August)

Event Time Altitude Azimuth Distance (km) Brightness Sun altitude
Exits shadow 21:05:40 - 169° (S) 2,576 6.3 -12.5°
Reaches altitude 10° 21:06:01 10° 169° (S) 2,438 6.2 -12.6°
Maximum altitude 21:11:26 81° 257° (WSW) 847 4.2 -13.5°
Drops below altitude 10° 21:16:52 10° 345° (NNW) 2,446 7.5 -14.3°
Sets 21:19:14 0° 347° (NNW) 3,383 8.3 -14.7°
